DW4604 Weather Reports


time (UTC)temp
F
wind
direction
speed
knots
gust
knots
rain 1hr
in
rain 24hr
in
rain mn
in
humidity
%
barometer
mb
20260903140948 72 0 0.0 0.0 0.00 0.00 0.00 66 1016.5
20260903140448 72 0 0.0 0.0 0.00 0.00 0.00 65 1016.6
20260903135948 72 0 0.0 0.0 0.00 0.00 0.00 65 1016.6
20260903135448 72 0 0.0 0.0 0.00 0.00 0.00 65 1016.5
20260903134948 73 0 0.0 0.0 0.00 0.00 0.00 65 1016.5
20260903134448 73 0 0.0 0.0 0.00 0.00 0.00 65 1016.6
20260903133448 72 0 0.0 0.0 0.00 0.00 0.00 64 1016.5
20260903132448 71 0 0.0 0.0 0.00 0.00 0.00 69 1016.6
20260903131948 71 0 0.0 0.0 0.00 0.00 0.00 67 1016.6
20260903130948 72 0 0.0 0.0 0.00 0.00 0.00 66 1016.7
20260903130448 72 0 0.0 0.0 0.00 0.00 0.00 69 1016.7
20260903125948 72 0 0.0 0.0 0.00 0.00 0.00 68 1016.7
20260903124948 72 0 0.0 0.0 0.00 0.00 0.00 68 1016.8
20260903123948 72 0 0.0 0.0 0.00 0.00 0.00 68 1016.9
20260903123449 72 0 0.0 0.0 0.00 0.00 0.00 67 1017.0
20260903122948 72 0 0.0 0.0 0.00 0.00 0.00 66 1017.0
20260903122449 73 0 0.0 0.0 0.00 0.00 0.00 67 1017.0
20260903121948 73 0 0.0 0.0 0.00 0.00 0.00 66 1017.1
20260903121448 73 0 0.0 0.0 0.00 0.00 0.00 66 1017.1
20260903120950 72 0 0.0 0.0 0.00 0.00 0.00 65 1017.0
20260903120448 72 0 0.0 0.0 0.00 0.00 0.00 69 1017.1
20260903115949 72 0 0.0 0.0 0.00 0.00 0.00 69 1017.2
20260903115448 71 0 0.0 0.0 0.00 0.00 0.00 68 1017.2
20260903114948 71 0 0.0 0.0 0.00 0.00 0.00 68 1017.2
20260903114448 71 0 0.0 0.0 0.00 0.00 0.00 71 1017.3
20260903113948 71 0 0.0 0.0 0.00 0.00 0.00 68 1017.2
20260903112948 72 0 0.0 0.0 0.00 0.00 0.00 66 1017.4
20260903112449 73 0 0.0 0.0 0.00 0.00 0.00 65 1017.4
20260903111948 73 0 0.0 0.0 0.00 0.00 0.00 69 1017.4
20260903111448 73 0 0.0 0.0 0.00 0.00 0.00 62 1017.3
20260903110950 73 0 0.0 0.0 0.00 0.00 0.00 66 1017.4
20260903110449 71 0 0.0 0.0 0.00 0.00 0.00 69 1017.4
20260903105949 72 0 0.0 0.0 0.00 0.00 0.00 65 1017.5
20260903105450 72 0 0.0 0.0 0.00 0.00 0.00 66 1017.4
20260903104949 73 0 0.0 0.0 0.00 0.00 0.00 63 1017.6
20260903103949 74 0 0.0 0.0 0.00 0.00 0.00 68 1017.6
20260903103449 73 0 0.0 0.0 0.00 0.00 0.00 64 1017.6
20260903102949 74 0 0.0 0.0 0.00 0.00 0.00 65 1017.7
20260903102449 73 0 0.0 0.0 0.00 0.00 0.00 66 1017.7
20260903101948 73 0 0.0 0.0 0.00 0.00 0.00 64 1017.7
20260903100949 73 0 0.0 0.0 0.00 0.00 0.00 61 1017.8
20260903100449 74 0 0.0 0.0 0.00 0.00 0.00 62 1017.9
20260903095950 73 0 0.0 0.0 0.00 0.00 0.00 65 1018.0
20260903095448 72 0 0.0 0.0 0.00 0.00 0.00 65 1018.0
20260903094948 73 0 0.0 0.0 0.00 0.00 0.00 63 1018.0
20260903094448 72 0 0.0 0.0 0.00 0.00 0.00 66 1018.0
20260903093949 72 0 0.0 0.0 0.00 0.00 0.00 65 1018.1
20260903092949 72 0 0.0 0.0 0.00 0.00 0.00 65 1018.2
20260903092450 71 0 0.0 0.0 0.00 0.00 0.00 63 1018.3
20260903091449 71 0 0.0 0.0 0.00 0.00 0.00 64 1018.4
20260903090949 71 0 0.0 0.0 0.00 0.00 0.00 64 1018.4
20260903090449 71 0 0.0 0.0 0.00 0.00 0.00 64 1018.5
20260903085449 71 0 0.0 0.0 0.00 0.00 0.00 65 1018.6
20260903084948 71 0 0.0 0.0 0.00 0.00 0.00 65 1018.5
20260903084451 70 0 0.0 0.0 0.00 0.00 0.00 67 1018.5
20260903083949 69 0 0.0 0.0 0.00 0.00 0.00 69 1018.6
20260903083449 69 0 0.0 0.0 0.00 0.00 0.00 68 1018.6
20260903082949 69 0 0.0 0.0 0.00 0.00 0.00 68 1018.7
20260903082449 68 0 0.0 0.0 0.00 0.00 0.00 71 1018.7
20260903081949 68 0 0.0 0.0 0.00 0.00 0.00 71 1018.5
20260903081449 67 0 0.0 0.0 0.00 0.00 0.00 73 1018.6
20260903080949 67 0 0.0 0.0 0.00 0.00 0.00 74 1018.7
20260903080449 68 0 0.0 0.0 0.00 0.00 0.00 72 1018.7
20260903075949 67 0 0.0 0.0 0.00 0.00 0.00 73 1018.7
20260903075450 67 0 0.0 0.0 0.00 0.00 0.00 73 1018.7
20260903074451 67 0 0.0 0.0 0.00 0.00 0.00 76 1018.7
20260903073949 66 0 0.0 0.0 0.00 0.00 0.00 77 1018.5
20260903073449 66 0 0.0 0.0 0.00 0.00 0.00 79 1018.5
20260903072451 65 0 0.0 0.0 0.00 0.00 0.00 80 1018.6
20260903071949 65 0 0.0 0.0 0.00 0.00 0.00 81 1018.6
20260903071449 64 0 0.0 0.0 0.00 0.00 0.00 81 1018.5
20260903070949 64 0 0.0 0.0 0.00 0.00 0.00 82 1018.5
20260903065950 63 0 0.0 0.0 0.00 0.00 0.00 83 1018.4
20260903065450 63 0 0.0 0.0 0.00 0.00 0.00 84 1018.4
20260903064949 62 0 0.0 0.0 0.00 0.00 0.00 85 1018.4
20260903064449 62 0 0.0 0.0 0.00 0.00 0.00 86 1018.5
20260903063949 61 0 0.0 0.0 0.00 0.00 0.00 87 1018.5
20260903063449 61 0 0.0 0.0 0.00 0.00 0.00 89 1018.5
20260903062951 60 0 0.0 0.0 0.00 0.00 0.00 90 1018.5
20260903062449 60 0 0.0 0.0 0.00 0.00 0.00 92 1018.5
20260903061949 59 0 0.0 0.0 0.00 0.00 0.00 93 1018.5
20260903061450 59 0 0.0 0.0 0.00 0.00 0.00 93 1018.6
20260903060950 58 0 0.0 0.0 0.00 0.00 0.00 94 1018.6
20260903060449 58 0 0.0 0.0 0.00 0.00 0.00 94 1018.7
20260903055949 57 0 0.0 0.0 0.00 0.00 0.00 94 1018.6
20260903055450 56 0 0.0 0.0 0.00 0.00 0.00 94 1018.5
20260903054950 56 0 0.0 0.0 0.00 0.00 0.00 94 1018.6
20260903054450 55 0 0.0 0.0 0.00 0.00 0.00 94 1018.6
20260903053950 55 0 0.0 0.0 0.00 0.00 0.00 94 1018.6
20260903053451 55 0 0.0 0.0 0.00 0.00 0.00 94 1018.5
20260903052950 55 0 0.0 0.0 0.00 0.00 0.00 93 1018.5
20260903052450 55 0 0.0 0.0 0.00 0.00 0.00 93 1018.5
20260903051950 55 0 0.0 0.0 0.00 0.00 0.00 94 1018.3
20260903050450 55 0 0.0 0.0 0.00 0.00 0.00 94 1018.1
20260903045951 55 0 0.0 0.0 0.00 0.00 0.00 93 1018.1
20260903045450 54 0 0.0 0.0 0.00 0.00 0.00 93 1018.0
20260903044950 54 0 0.0 0.0 0.00 0.00 0.00 93 1017.9
20260903044451 54 0 0.0 0.0 0.00 0.00 0.00 93 1017.9
20260903043950 54 0 0.0 0.0 0.00 0.00 0.00 93 1017.9
20260903043450 54 0 0.0 0.0 0.00 0.00 0.00 93 1018.0
20260903042951 54 0 0.0 0.0 0.00 0.00 0.00 93 1018.0
20260903042450 54 0 0.0 0.0 0.00 0.00 0.00 93 1017.9
20260903041450 54 0 0.0 0.0 0.00 0.00 0.00 93 1017.9
20260903040950 54 0 0.0 0.0 0.00 0.00 0.00 93 1018.0
20260903035950 55 0 0.0 0.0 0.00 0.00 0.00 92 1017.9
20260903034449 55 0 0.0 0.0 0.00 0.00 0.00 92 1017.9
20260903033949 56 0 0.0 0.0 0.00 0.00 0.00 93 1017.8
20260903033450 56 0 0.0 0.0 0.00 0.00 0.00 93 1017.8
20260903032950 56 0 0.0 0.0 0.00 0.00 0.00 93 1017.9
20260903032450 56 0 0.0 0.0 0.00 0.00 0.00 92 1018.0
20260903031950 56 0 0.0 0.0 0.00 0.00 0.00 92 1018.0
20260903031450 56 0 0.0 0.0 0.00 0.00 0.00 93 1018.0
20260903030450 57 0 0.0 0.0 0.00 0.00 0.00 93 1018.1
20260903025951 57 0 0.0 0.0 0.00 0.00 0.00 93 1018.2
20260903025451 57 0 0.0 0.0 0.00 0.00 0.00 93 1018.0
20260903024450 56 0 0.0 0.0 0.00 0.00 0.00 93 1018.0
20260903023450 57 0 0.0 0.0 0.00 0.00 0.00 93 1018.1
20260903022950 57 0 0.0 0.0 0.00 0.00 0.00 93 1018.1
20260903022450 57 0 0.0 0.0 0.00 0.00 0.00 93 1018.0
20260903021951 57 0 0.0 0.0 0.00 0.00 0.00 94 1018.1
20260903021450 57 0 0.0 0.0 0.00 0.00 0.00 94 1018.2
20260903020450 57 0 0.0 0.0 0.00 0.00 0.00 94 1018.4
20260903015450 56 0 0.0 0.0 0.00 0.00 0.00 94 1018.6
20260903014952 55 0 0.0 0.0 0.00 0.00 0.00 94 1018.2
20260903014451 55 0 0.0 0.0 0.00 0.00 0.00 94 1018.0
20260903013951 55 0 0.0 0.0 0.00 0.00 0.00 94 1018.0
20260903013450 56 0 0.0 0.0 0.00 0.00 0.00 94 1017.9
20260903012950 56 0 0.0 0.0 0.00 0.00 0.00 94 1017.9
20260903012451 56 0 0.0 0.0 0.00 0.00 0.00 94 1017.9
20260903011951 56 0 0.0 0.0 0.00 0.00 0.00 94 1017.9
20260903011451 56 0 0.0 0.0 0.00 0.00 0.00 94 1018.0
20260903010451 56 0 0.0 0.0 0.00 0.00 0.00 94 1017.9
20260903005951 56 0 0.0 0.0 0.00 0.00 0.00 94 1017.9
20260903005450 56 0 0.0 0.0 0.00 0.00 0.00 94 1017.9
20260903004951 56 0 0.0 0.0 0.00 0.00 0.00 94 1017.9
20260903004451 56 0 0.0 0.0 0.00 0.00 0.00 94 1017.9
20260903002951 55 0 0.0 0.0 0.00 0.00 0.00 94 1018.1
20260903002452 55 0 0.0 0.0 0.00 0.00 0.00 94 1018.2
20260903001951 56 0 0.0 0.0 0.00 0.00 0.00 94 1018.2
20260903001450 55 0 0.0 0.0 0.00 0.00 0.00 94 1018.2
20260903000952 55 0 0.0 0.0 0.00 0.00 0.00 93 1018.2
20260903000451 55 0 0.0 0.0 0.00 0.00 0.00 93 1018.3
20260902235951 55 0 0.0 0.0 0.00 0.00 0.00 93 1018.3
20260902235451 55 0 0.0 0.0 0.00 0.00 0.00 93 1018.3
20260902234951 55 0 0.0 0.0 0.00 0.00 0.00 94 1018.3
20260902234451 55 0 0.0 0.0 0.00 0.00 0.00 93 1018.2
20260902233951 56 0 0.0 0.0 0.00 0.00 0.00 94 1018.2
20260902233451 55 0 0.0 0.0 0.00 0.00 0.00 94 1018.3
20260902232951 55 0 0.0 0.0 0.00 0.00 0.00 93 1018.3
20260902232452 55 0 0.0 0.0 0.00 0.00 0.00 93 1018.4
20260902231951 55 0 0.0 0.0 0.00 0.00 0.00 93 1018.4
20260902231451 55 0 0.0 0.0 0.00 0.00 0.00 93 1018.4
20260902230951 55 0 0.0 0.0 0.00 0.00 0.00 93 1018.4
20260902230451 55 0 0.0 0.0 0.00 0.00 0.00 93 1018.4
20260902225951 55 0 0.0 0.0 0.00 0.00 0.00 93 1018.4
20260902225450 55 0 0.0 0.0 0.00 0.00 0.00 93 1018.4
20260902224951 55 0 0.0 0.0 0.00 0.00 0.00 93 1018.4
20260902224450 54 0 0.0 0.0 0.00 0.00 0.00 93 1018.5
20260902223952 54 0 0.0 0.0 0.00 0.00 0.00 93 1018.5
20260902222950 54 0 0.0 0.0 0.00 0.00 0.00 93 1018.5
20260902222451 54 0 0.0 0.0 0.00 0.00 0.00 93 1018.5
20260902221451 55 0 0.0 0.0 0.00 0.00 0.00 92 1018.5
20260902220951 55 0 0.0 0.0 0.00 0.00 0.00 92 1018.5
20260902220451 55 0 0.0 0.0 0.00 0.00 0.00 93 1018.5
20260902215953 55 0 0.0 0.0 0.00 0.00 0.00 92 1018.4
20260902215450 56 0 0.0 0.0 0.00 0.00 0.00 92 1018.4
20260902214951 56 0 0.0 0.0 0.00 0.00 0.00 92 1018.4
20260902214452 56 0 0.0 0.0 0.00 0.00 0.00 92 1018.3
20260902213951 56 0 0.0 0.0 0.00 0.00 0.00 92 1018.3
20260902213452 56 0 0.0 0.0 0.00 0.00 0.00 92 1018.3
20260902212951 56 0 0.0 0.0 0.00 0.00 0.00 92 1018.3
20260902212451 56 0 0.0 0.0 0.00 0.00 0.00 92 1018.3
20260902211952 56 0 0.0 0.0 0.00 0.00 0.00 92 1018.3
20260902211451 56 0 0.0 0.0 0.00 0.00 0.00 92 1018.3
20260902210452 56 0 0.0 0.0 0.00 0.00 0.00 92 1018.3
20260902205952 56 0 0.0 0.0 0.00 0.00 0.00 92 1018.3
20260902205451 56 0 0.0 0.0 0.00 0.00 0.00 91 1018.3
20260902204951 56 0 0.0 0.0 0.00 0.00 0.00 91 1018.3
20260902203951 56 0 0.0 0.0 0.00 0.00 0.00 91 1018.3
20260902202452 57 0 0.0 0.0 0.00 0.00 0.00 91 1018.3
20260902201451 57 0 0.0 0.0 0.00 0.00 0.00 90 1018.3
20260902195951 58 0 0.0 0.0 0.00 0.00 0.00 90 1018.3
20260902195451 58 0 0.0 0.0 0.00 0.00 0.00 90 1018.3
20260902194451 58 0 0.0 0.0 0.00 0.00 0.00 90 1018.3
20260902193451 58 0 0.0 0.0 0.00 0.00 0.00 89 1018.4
20260902192951 58 0 0.0 0.0 0.00 0.00 0.00 89 1018.4
20260902192452 59 0 0.0 0.0 0.00 0.00 0.00 89 1018.4
20260902191951 59 0 0.0 0.0 0.00 0.00 0.00 89 1018.4
20260902191452 59 0 0.0 0.0 0.00 0.00 0.00 88 1018.5
20260902190952 59 0 0.0 0.0 0.00 0.00 0.00 88 1018.5
20260902190452 60 0 0.0 0.0 0.00 0.00 0.00 88 1018.4
20260902185951 60 0 0.0 0.0 0.00 0.00 0.00 88 1018.4
20260902185451 60 0 0.0 0.0 0.00 0.00 0.00 88 1018.3
20260902184952 60 0 0.0 0.0 0.00 0.00 0.00 87 1018.4
20260902184452 60 0 0.0 0.0 0.00 0.00 0.00 87 1018.4
20260902183951 60 0 0.0 0.0 0.00 0.00 0.00 88 1018.4
20260902183452 60 0 0.0 0.0 0.00 0.00 0.00 88 1018.4
20260902182952 60 0 0.0 0.0 0.00 0.00 0.00 87 1018.4
20260902182452 60 0 0.0 0.0 0.00 0.00 0.00 87 1018.4
20260902181951 61 0 0.0 0.0 0.00 0.00 0.00 87 1018.4
20260902181451 61 0 0.0 0.0 0.00 0.00 0.00 86 1018.3
20260902180451 62 0 0.0 0.0 0.00 0.00 0.00 85 1018.3
20260902175952 62 0 0.0 0.0 0.00 0.00 0.00 85 1018.2
20260902175452 62 0 0.0 0.0 0.00 0.00 0.00 84 1018.2
20260902174452 63 0 0.0 0.0 0.00 0.00 0.00 83 1018.2
20260902173952 63 0 0.0 0.0 0.00 0.00 0.00 82 1018.2
20260902173452 64 0 0.0 0.0 0.00 0.00 0.00 82 1018.1
20260902172952 64 0 0.0 0.0 0.00 0.00 0.00 81 1018.1
20260902171952 65 0 0.0 0.0 0.00 0.00 0.00 80 1018.1
20260902171452 65 0 0.0 0.0 0.00 0.00 0.00 79 1018.0
20260902170952 65 0 0.0 0.0 0.00 0.00 0.00 79 1018.0
20260902170452 65 0 0.0 0.0 0.00 0.00 0.00 78 1018.0
20260902165953 66 0 0.0 0.0 0.00 0.00 0.00 78 1018.0
20260902165452 66 0 0.0 0.0 0.00 0.00 0.00 78 1018.0
20260902164952 66 0 0.0 0.0 0.00 0.00 0.00 77 1018.0
20260902164452 66 0 0.0 0.0 0.00 0.00 0.00 77 1017.9
20260902163952 67 0 0.0 0.0 0.00 0.00 0.00 77 1017.9
20260902163452 67 0 0.0 0.0 0.00 0.00 0.00 77 1018.1
20260902162952 67 0 0.0 0.0 0.00 0.00 0.00 76 1018.0
20260902161952 68 0 0.0 0.0 0.00 0.00 0.00 75 1018.0
20260902161453 69 0 0.0 0.0 0.00 0.00 0.00 75 1018.0
20260902160953 69 0 0.0 0.0 0.00 0.00 0.00 74 1018.0
20260902160452 69 0 0.0 0.0 0.00 0.00 0.00 74 1018.1
20260902155952 69 0 0.0 0.0 0.00 0.00 0.00 73 1018.1
20260902155452 70 0 0.0 0.0 0.00 0.00 0.00 73 1018.0
20260902154452 70 0 0.0 0.0 0.00 0.00 0.00 69 1018.0
20260902153453 71 0 0.0 0.0 0.00 0.00 0.00 66 1018.0
20260902152954 72 0 0.0 0.0 0.00 0.00 0.00 66 1018.1
20260902152453 72 0 0.0 0.0 0.00 0.00 0.00 63 1018.1
20260902151953 73 0 0.0 0.0 0.00 0.00 0.00 66 1018.2
20260902151459 73 0 0.0 0.0 0.00 0.00 0.00 64 1018.2
20260902150952 73 0 0.0 0.0 0.00 0.00 0.00 65 1018.1
20260902150453 73 0 0.0 0.0 0.00 0.00 0.00 64 1018.2
20260902145953 73 0 0.0 0.0 0.00 0.00 0.00 63 1018.2
20260902145453 73 0 0.0 0.0 0.00 0.00 0.00 63 1018.2
20260902144953 73 0 0.0 0.0 0.00 0.00 0.00 64 1018.3
20260902144453 73 0 0.0 0.0 0.00 0.00 0.00 63 1018.4
20260902143952 73 0 0.0 0.0 0.00 0.00 0.00 64 1018.3
20260902142952 73 0 0.0 0.0 0.00 0.00 0.00 62 1018.3
20260902141952 74 0 0.0 0.0 0.00 0.00 0.00 62 1018.3